Temp
-6 -5 -5 -5 -6 -6 -7 -7 -7 -7 -7 -7 -8 -8 -8 -8 -5 -5 -6 -6 -6 -6 -6 -6 -6 -6 -6 -6 -5 -5 -6 -6 -6 -6 -6 -6 -6 -6 -6 -6 -6 -6 -6
-5 -5 -6 -6 -7 -7 -7 -8 -8 -8 -8 -7 -8 -8 -8 -7 -6 -6 -6 -6 -6 -6 -6 -6 -6 -6 -6 -6 -6 -5 -6 -6 -6 -6 -6 -6 -6 -6 -6 -6 -6 -6 -6
-6 -6 -6 -6 -7 -8 -8 -8 -8 -8 -9 -9 -9 -9 -8 -7 -6 -6 -6 -6 -6 -6 -5 -6 -6 -6 -6 -6 -6 -5 -6 -6 -6 -6 -6 -6 -6 -6 -6 -6 -6 -6 -6
-6 -6 -6 -7 -7 -8 -8 -8 -8 -8 -9 -9 -9 -8 -7 -7 -7 -7 -6 -6 -6 -6 -6 -6 -6 -6 -6 -6 -6 -6 -6 -6 -6 -6 -6 -6 -6 -6 -6 -6 -6 -6 -6
-6 -6 -6 -7 -7 -8 -8 -8 -8 -8 -9 -9 -10 -8 -7 -7 -7 -7 -7 -6 -6 -6 -6 -6 -6 -6 -6 -6 -6 -6 -6 -6 -6 -6 -6 -6 -6 -6 -6 -6 -6 -6 -6
-5 -6 -6 -7 -7 -7 -8 -8 -8 -8 -8 -9 -9 -9 -8 -7 -7 -7 -7 -7 -6 -6 -6 -6 -6 -6 -6 -6 -6 -6 -6 -6 -6 -6 -6 -6 -6 -5 -6 -6 -6 -6 -6
-5 -6 -6 -7 -7 -7 -8 -8 -8 -8 -8 -8 -8 -10 -9 -7 -7 -7 -7 -7 -6 -6 -6 -6 -6 -6 -6 -6 -6 -6 -6 -6 -6 -6 -6 -6 -6 -5 -5 -6 -6 -6 -6
-5 -6 -6 -6 -7 -7 -7 -8 -8 -8 -8 -8 -9 -9 -9 -9 -7 -7 -7 -6 -6 -6 -6 -6 -6 -6 -6 -6 -6 -6 -6 -6 -6 -6 -6 -6 -6 -6 -6 -5 -6 -6 -6
-6 -6 -7 -6 -7 -7 -7 -8 -8 -8 -9 -8 -9 -9 -8 -8 -8 -7 -7 -6 -6 -6 -6 -6 -6 -6 -6 -6 -6 -6 -6 -6 -6 -5 -6 -6 -6 -6 -6 -6 -6 -5 -6
-5 -6 -6 -7 -7 -7 -7 -8 -8 -8 -8 -8 -8 -8 -8 -8 -7 -7 -7 -7 -6 -6 -6 -6 -6 -6 -6 -6 -6 -6 -6 -6 -6 -6 -6 -6 -6 -6 -6 -6 -6 -6 -6
-6 -5 -6 -7 -7 -7 -7 -7 -8 -8 -8 -8 -8 -8 -8 -8 -8 -7 -7 -7 -7 -7 -6 -6 -6 -6 -6 -6 -6 -6 -6 -6 -6 -6 -6 -6 -5 -6 -5 -5 -6 -6 -6
-6 -6 -6 -6 -7 -7 -7 -6 -7 -7 -7 -7 -8 -8 -8 -8 -8 -8 -7 -7 -7 -7 -6 -6 -6 -6 -6 -6 -6 -6 -6 -6 -6 -6 -6 -6 -5 -5 -5 -6 -5 -6 -6
-6 -6 -6 -6 -6 -7 -7 -7 -7 -7 -7 -7 -7 -7 -7 -8 -7 -7 -7 -7 -7 -7 -7 -6 -6 -6 -6 -6 -6 -6 -6 -6 -6 -6 -6 -6 -6 -5 -5 -6 -6 -6 -6
-6 -6 -6 -6 -6 -6 -7 -7 -7 -7 -7 -7 -7 -7 -7 -7 -7 -7 -7 -7 -7 -7 -7 -7 -6 -6 -6 -6 -6 -6 -6 -6 -6 -6 -6 -6 -6 -6 -6 -6 -6 -6 -6
-7 -6 -6 -6 -6 -6 -6 -7 -7 -7 -7 -7 -7 -7 -7 -7 -8 -8 -7 -7 -7 -7 -7 -7 -6 -6 -6 -6 -6 -6 -6 -6 -6 -6 -6 -7 -6 -6 -5 -6 -6 -6 -6
-8 -6 -6 -6 -6 -6 -6 -6 -6 -7 -7 -7 -7 -7 -7 -8 -8 -7 -8 -7 -7 -7 -7 -6 -6 -7 -7 -6 -6 -6 -6 -6 -6 -6 -6 -6 -6 -6 -6 -6 -6 -6 -6
-8 -7 -6 -6 -6 -6 -6 -6 -6 -6 -6 -7 -7 -7 -7 -7 -8 -8 -7 -7 -7 -7 -7 -7 -7 -7 -7 -6 -6 -6 -7 -6 -7 -6 -6 -6 -6 -6 -6 -6 -6 -6 -7
-8 -8 -7 -6 -6 -6 -6 -6 -6 -6 -6 -6 -6 -7 -7 -7 -7 -7 -7 -7 -7 -7 -7 -7 -7 -7 -7 -7 -7 -6 -6 -6 -6 -7 -6 -6 -6 -6 -6 -6 -6 -6 -6
-8 -8 -8 -7 -7 -6 -6 -6 -6 -6 -6 -6 -7 -7 -7 -7 -7 -7 -7 -7 -7 -7 -7 -7 -7 -7 -7 -7 -7 -7 -7 -6 -6 -7 -6 -6 -7 -6 -6 -6 -6 -6 -6
-8 -8 -8 -8 -8 -7 -7 -6 -6 -6 -6 -6 -7 -7 -7 -7 -7 -7 -7 -7 -7 -7 -7 -7 -7 -7 -7 -7 -7 -6 -6 -6 -6 -6 -7 -7 -6 -6 -6 -6 -6 -6 -6
-8 -9 -8 -8 -8 -8 -7 -7 -7 -6 -7 -6 -6 -7 -7 -7 -7 -7 -7 -7 -8 -7 -7 -7 -7 -7 -7 -7 -7 -7 -7 -7 -6 -6 -6 -6 -7 -7 -6 -6 -7 -7 -7
-8 -9 -8 -8 -8 -8 -8 -7 -7 -7 -7 -7 -6 -6 -7 -7 -7 -7 -7 -7 -7 -7 -7 -7 -7 -7 -7 -7 -7 -7 -7 -7 -7 -6 -6 -6 -6 -6 -6 -7 -6 -6 -6
-8 -8 -9 -8 -8 -8 -8 -8 -8 -7 -7 -7 -7 -6 -6 -6 -7 -7 -7 -7 -7 -7 -7 -7 -7 -7 -7 -7 -7 -7 -7 -7 -7 -7 -7 -7 -7 -6 -7 -6 -6 -6 -6
-8 -8 -9 -8 -8 -8 -8 -8 -8 -8 -8 -7 -7 -7 -7 -6 -6 -6 -7 -6 -7 -7 -7 -7 -7 -7 -7 -7 -6 -7 -7 -7 -7 -7 -7 -7 -7 -7 -7 -6 -6 -7 -6
-8 -8 -9 -8 -8 -8 -8 -8 -8 -8 -8 -8 -8 -8 -7 -7 -7 -6 -6 -7 -7 -7 -7 -7 -7 -7 -7 -7 -7 -7 -7 -7 -7 -7 -7 -7 -7 -7 -7 -6 -6 -6 -7
-8 -8 -9 -8 -8 -8 -8 -8 -8 -8 -8 -8 -8 -8 -8 -8 -7 -7 -7 -6 -7 -7 -7 -7 -7 -7 -7 -7 -7 -7 -7 -7 -7 -7 -7 -7 -7 -7 -7 -7 -7 -7 -7
Height
5869 5868 5869 5869 5869 5869 5869 5870 5872 5873 5873 5875 5877 5881 5885 5890 5890 5891 5893 5895 5897 5898 5898 5899 5900 5900 5901 5901 5902 5903 5905 5906 5905 5905 5906 5908 5909 5911 5911 5911 5912 5913 5914
5868 5869 5869 5869 5869 5870 5871 5871 5873 5875 5875 5877 5878 5882 5885 5889 5890 5890 5895 5897 5897 5899 5899 5900 5901 5902 5902 5902 5903 5904 5906 5907 5907 5907 5909 5910 5911 5912 5912 5913 5913 5915 5916
5868 5868 5869 5870 5871 5872 5872 5873 5874 5875 5876 5878 5881 5883 5886 5887 5890 5892 5895 5898 5898 5900 5901 5901 5903 5904 5904 5904 5904 5906 5907 5908 5909 5910 5911 5912 5913 5913 5914 5915 5915 5917 5918
5871 5872 5871 5871 5872 5872 5874 5875 5876 5877 5878 5879 5883 5885 5888 5889 5890 5894 5896 5897 5899 5902 5902 5902 5904 5905 5905 5905 5907 5908 5909 5910 5911 5913 5913 5914 5915 5915 5916 5917 5918 5919 5920
5875 5873 5872 5872 5873 5874 5876 5877 5878 5878 5879 5879 5881 5885 5889 5890 5892 5894 5896 5898 5901 5903 5903 5904 5905 5906 5907 5907 5908 5909 5911 5912 5913 5915 5915 5916 5917 5918 5918 5920 5920 5921 5922
5875 5874 5873 5873 5874 5875 5876 5878 5879 5880 5880 5880 5881 5884 5887 5891 5893 5894 5897 5899 5902 5904 5905 5905 5906 5908 5908 5909 5909 5911 5912 5913 5914 5916 5917 5917 5919 5920 5921 5922 5922 5923 5924
5874 5873 5873 5875 5876 5876 5877 5879 5881 5881 5880 5880 5881 5884 5889 5892 5894 5896 5898 5901 5902 5904 5906 5906 5906 5908 5909 5910 5911 5912 5913 5915 5916 5917 5918 5919 5920 5922 5923 5924 5925 5925 5925
5875 5874 5875 5876 5877 5877 5878 5879 5881 5882 5882 5882 5881 5883 5889 5892 5894 5897 5899 5901 5902 5905 5907 5908 5908 5909 5909 5911 5912 5913 5915 5917 5917 5918 5919 5921 5922 5923 5924 5926 5927 5927 5927
5878 5877 5876 5877 5877 5877 5878 5879 5881 5882 5883 5884 5885 5886 5890 5893 5895 5897 5899 5901 5903 5905 5907 5908 5909 5910 5911 5912 5912 5914 5916 5917 5919 5920 5920 5923 5924 5924 5925 5927 5928 5929 5929
5881 5879 5879 5878 5878 5878 5878 5879 5881 5883 5883 5885 5887 5889 5892 5894 5896 5897 5899 5901 5904 5905 5907 5908 5910 5911 5912 5912 5913 5915 5917 5918 5919 5921 5922 5925 5925 5925 5926 5927 5928 5929 5930
5883 5881 5879 5880 5880 5880 5880 5880 5882 5883 5885 5885 5887 5889 5891 5894 5897 5899 5900 5902 5904 5906 5906 5908 5910 5911 5913 5913 5914 5916 5917 5920 5921 5922 5923 5925 5926 5926 5927 5928 5929 5929 5931
5885 5883 5881 5880 5880 5880 5881 5881 5882 5884 5885 5887 5887 5890 5892 5894 5897 5899 5901 5902 5904 5905 5906 5907 5910 5911 5913 5914 5915 5917 5918 5920 5921 5922 5923 5925 5927 5926 5927 5928 5929 5930 5931
5888 5885 5883 5880 5879 5879 5880 5882 5882 5884 5885 5887 5889 5890 5892 5894 5896 5898 5900 5901 5903 5904 5904 5906 5908 5910 5913 5913 5915 5916 5917 5920 5921 5922 5923 5924 5927 5927 5927 5928 5930 5930 5931
5888 5885 5884 5881 5880 5879 5880 5880 5882 5883 5885 5887 5888 5890 5891 5893 5894 5896 5898 5900 5901 5903 5903 5905 5906 5909 5911 5913 5914 5916 5917 5918 5920 5921 5921 5922 5926 5927 5927 5927 5929 5930 5931
5887 5887 5885 5882 5880 5880 5879 5880 5881 5882 5883 5885 5886 5888 5889 5890 5892 5894 5895 5897 5899 5901 5902 5903 5905 5907 5909 5911 5913 5916 5916 5917 5918 5919 5920 5921 5923 5925 5926 5926 5927 5928 5929
5888 5889 5886 5883 5881 5880 5879 5879 5880 5881 5882 5883 5884 5886 5887 5888 5889 5889 5891 5893 5896 5898 5900 5902 5904 5906 5908 5909 5911 5914 5915 5915 5916 5919 5919 5920 5922 5923 5925 5926 5926 5927 5928
5887 5886 5887 5884 5882 5879 5878 5878 5879 5880 5880 5881 5882 5883 5884 5885 5886 5887 5888 5890 5893 5895 5897 5899 5902 5905 5906 5907 5909 5911 5913 5914 5915 5916 5918 5920 5921 5922 5923 5924 5925 5925 5926
5885 5885 5885 5884 5882 5880 5878 5877 5877 5878 5879 5880 5880 5880 5881 5883 5885 5886 5887 5889 5891 5893 5895 5898 5900 5902 5903 5905 5906 5908 5910 5912 5913 5913 5915 5917 5918 5919 5920 5921 5922 5922 5923
5884 5883 5884 5882 5881 5881 5879 5877 5876 5877 5877 5878 5879 5879 5879 5880 5882 5883 5884 5886 5887 5890 5892 5894 5897 5899 5900 5901 5903 5904 5906 5908 5911 5912 5912 5913 5914 5915 5916 5917 5918 5918 5919
5882 5882 5882 5881 5880 5879 5879 5878 5877 5876 5875 5876 5877 5878 5878 5879 5880 5881 5882 5883 5885 5887 5888 5892 5894 5895 5896 5898 5900 5901 5903 5904 5906 5907 5909 5910 5910 5911 5912 5913 5915 5916 5917
5878 5880 5880 5880 5880 5878 5878 5877 5876 5876 5875 5875 5875 5875 5876 5877 5877 5878 5879 5880 5881 5884 5886 5887 5890 5891 5893 5895 5897 5898 5900 5901 5902 5902 5903 5907 5908 5907 5909 5910 5911 5912 5913
5874 5876 5877 5877 5878 5878 5877 5876 5875 5875 5875 5873 5874 5875 5875 5875 5876 5876 5876 5876 5877 5879 5881 5883 5885 5886 5888 5890 5891 5893 5896 5897 5897 5896 5898 5900 5900 5903 5905 5906 5907 5908 5909
5869 5872 5873 5873 5874 5875 5875 5875 5874 5873 5872 5872 5872 5873 5873 5873 5873 5874 5875 5875 5875 5876 5878 5880 5881 5881 5882 5884 5885 5888 5890 5890 5890 5892 5893 5894 5894 5896 5898 5901 5902 5903 5904
5864 5866 5868 5869 5869 5871 5873 5873 5872 5871 5870 5870 5871 5870 5870 5870 5871 5871 5872 5871 5873 5874 5875 5875 5877 5878 5878 5878 5878 5880 5882 5883 5883 5885 5887 5887 5889 5890 5892 5895 5897 5898 5899
5858 5860 5862 5864 5864 5867 5869 5870 5869 5869 5868 5867 5867 5868 5867 5868 5869 5870 5870 5870 5870 5869 5870 5872 5871 5872 5873 5874 5874 5872 5874 5875 5876 5878 5879 5880 5880 5882 5885 5887 5890 5892 5892
5843 5850 5856 5857 5861 5861 5863 5865 5866 5865 5864 5864 5863 5864 5864 5866 5866 5867 5867 5867 5868 5868 5867 5867 5868 5867 5866 5866 5865 5866 5867 5868 5869 5871 5873 5872 5872 5876 5878 5881 5882 5883 5885
Wind_Speed
4 4 4 7 8 7 7 7 7 6 11 18 30 31 23 21 21 20 18 18 16 16 15 16 17 17 18 19 19 19 19 19 19 21 21 21 21 20 21 21 22 20 19
6 6 5 7 10 10 9 8 6 6 15 22 28 26 27 22 19 21 18 16 16 15 16 17 19 18 19 19 19 17 18 18 20 20 19 19 21 21 22 21 22 20 19
5 7 7 9 10 11 10 8 6 6 10 20 22 24 26 25 21 19 18 16 16 15 16 18 19 19 19 19 19 17 16 16 17 18 18 17 18 20 20 19 19 17 16
3 7 8 8 9 12 11 9 6 7 10 21 23 21 21 22 21 19 18 17 15 15 16 17 18 18 20 20 18 17 15 15 16 15 16 17 15 17 17 16 17 14 14
4 3 6 6 6 10 12 10 7 6 5 14 29 24 20 19 20 20 18 17 15 14 14 15 17 17 18 18 17 16 14 13 14 14 13 14 13 13 14 13 13 12 12
10 8 7 6 3 5 8 9 6 6 4 1 29 29 22 18 19 18 17 16 15 14 14 15 15 16 17 17 16 15 14 12 11 11 12 12 11 10 11 10 10 10 9
13 10 8 5 2 1 6 9 7 5 3 2 19 29 19 19 17 17 17 17 15 14 14 14 15 16 16 15 15 14 14 13 11 11 10 11 8 9 9 8 8 8 8
13 11 7 5 2 1 4 9 9 6 4 3 6 30 19 18 15 16 17 16 15 14 14 15 15 15 14 14 13 13 12 11 12 12 11 8 9 9 8 7 6 6 6
17 10 7 5 3 1 4 9 10 8 8 5 5 20 23 18 16 16 15 15 15 15 15 14 14 14 14 13 13 12 11 11 10 10 11 8 9 9 8 7 6 6 7
19 13 7 6 4 3 4 9 10 11 10 9 8 9 7 24 22 15 13 14 16 16 16 15 14 14 14 13 12 12 12 12 11 9 11 9 9 8 8 7 7 8 7
19 14 9 4 5 3 5 8 11 11 10 12 11 10 10 13 18 19 15 15 16 16 16 15 15 13 13 12 10 9 10 10 10 10 9 9 6 8 8 7 8 8 5
18 17 10 6 5 5 5 6 9 12 11 10 10 10 12 13 13 12 15 15 14 14 15 16 15 14 14 13 12 10 7 8 10 10 9 8 7 8 10 8 7 6 4
16 16 10 9 4 5 4 3 6 9 12 12 11 11 12 13 13 17 16 16 18 14 15 16 16 15 15 15 14 13 12 9 10 11 11 9 9 9 10 9 6 4 3
17 14 13 8 7 4 4 3 4 5 7 10 12 12 12 11 13 16 20 18 18 17 14 15 14 16 16 16 16 14 14 13 11 11 13 11 12 12 12 11 8 5 3
21 13 12 10 6 6 6 4 3 4 4 6 9 11 12 9 12 15 21 21 19 20 16 15 15 15 15 16 16 15 16 16 16 14 13 12 15 13 13 12 11 9 7
21 16 10 9 6 4 4 5 5 4 5 7 7 9 10 9 8 15 17 23 22 19 17 16 16 15 15 15 15 13 16 18 18 15 15 13 14 14 14 13 12 10 9
17 21 12 8 7 4 3 4 5 5 3 4 8 8 11 12 10 7 11 23 24 21 19 18 16 15 16 17 17 14 14 17 19 18 16 14 14 14 14 12 12 11 11
18 16 18 11 6 5 2 3 4 4 4 4 3 5 11 14 9 8 9 13 25 25 22 21 18 17 16 17 15 17 15 16 17 18 18 17 15 14 15 14 13 13 15
19 14 16 15 11 5 3 2 2 3 4 3 2 2 2 11 13 12 11 11 14 28 27 26 23 21 20 19 18 17 18 17 18 19 19 19 18 17 18 18 17 16 17
20 15 14 15 15 10 3 1 1 3 2 1 2 3 1 2 7 11 10 15 15 18 21 26 25 23 22 22 21 21 21 21 22 21 20 20 20 19 20 21 19 19 18
23 18 14 15 13 14 7 1 3 3 3 4 1 1 1 0 3 6 9 11 20 19 19 20 20 23 24 23 24 25 24 24 24 26 25 22 22 23 21 21 20 21 20
16 21 16 18 14 15 11 5 1 3 4 4 3 2 1 0 2 3 6 8 11 21 20 20 21 23 24 26 26 25 25 27 29 30 26 25 27 26 24 25 24 24 24
15 20 22 21 17 15 16 9 5 1 2 4 4 3 2 0 2 3 6 7 10 12 17 20 23 24 26 26 27 26 27 29 32 31 30 29 30 28 29 28 28 28 27
17 18 23 24 24 18 19 17 9 6 2 0 3 5 4 2 3 5 7 9 10 11 14 17 17 20 24 27 30 29 30 31 33 33 32 32 33 33 32 31 29 28 28
29 16 19 28 29 21 16 14 12 11 9 5 3 2 1 6 8 6 5 7 8 11 14 16 19 19 19 23 26 27 29 29 27 31 32 34 36 33 33 33 31 31 30
32 22 21 31 30 26 17 17 15 13 12 11 9 7 5 4 6 10 10 7 9 13 14 17 17 17 17 20 24 26 25 28 29 28 33 37 35 33 32 33 32 34 36
Wind_Direction
179 149 138 116 107 100 83 77 90 206 209 199 175 163 161 175 169 155 153 155 154 150 150 146 145 137 131 125 118 114 113 109 105 100 98 101 102 101 97 90 89 88 88
165 159 144 125 110 101 94 88 96 162 199 185 179 174 163 170 169 152 155 159 151 148 145 146 146 141 135 130 122 120 114 111 108 104 103 105 105 102 96 95 93 90 90
162 158 151 130 124 118 111 99 101 162 171 171 164 166 175 171 168 163 157 155 151 148 145 143 144 143 141 135 127 122 118 114 111 112 112 107 105 103 100 99 96 95 93
157 178 141 130 134 129 123 117 122 134 189 190 174 170 177 172 168 165 160 153 151 152 148 147 149 147 147 140 134 128 126 121 118 117 116 111 106 104 104 104 103 104 100
86 111 106 117 136 135 131 133 134 128 140 213 179 176 175 180 173 169 163 158 157 158 154 153 155 151 149 145 138 137 132 125 120 120 119 114 111 108 107 108 107 107 103
59 59 57 74 96 133 135 136 142 152 140 178 194 177 167 183 174 169 166 164 167 163 164 160 157 157 157 154 146 145 140 139 130 126 126 117 117 115 112 112 112 110 104
62 63 58 63 35 157 147 152 160 166 155 20 192 162 165 179 173 174 174 172 169 172 173 170 160 166 163 159 154 152 152 150 147 139 138 125 134 125 120 118 111 104 96
54 65 72 93 81 176 189 158 172 169 150 145 56 168 165 178 175 179 180 177 174 179 184 181 171 166 163 164 155 158 157 158 159 158 136 143 142 131 125 118 108 102 96
32 51 70 97 95 124 206 176 172 179 162 166 144 186 166 174 171 180 182 182 184 185 192 190 179 173 168 165 158 163 161 165 159 166 141 170 156 142 136 132 122 109 99
25 30 63 87 93 129 185 186 175 176 175 177 175 171 175 196 181 181 187 193 195 193 195 194 187 181 176 171 169 175 177 173 167 180 157 171 159 146 141 144 134 123 111
19 22 35 82 95 118 156 178 180 180 183 178 184 184 191 176 188 196 184 195 196 200 200 201 195 190 190 178 172 176 193 183 182 176 175 165 176 157 152 157 142 129 113
18 21 37 40 108 111 145 164 181 181 182 184 183 187 194 202 213 198 199 206 195 204 205 207 206 200 202 194 184 181 191 195 195 188 183 176 179 174 161 163 157 141 131
20 18 37 38 75 107 140 149 178 184 186 189 195 193 191 203 209 215 207 209 210 209 210 211 211 210 211 207 202 196 188 199 200 194 199 182 189 198 175 170 181 169 181
3 14 22 40 44 77 106 124 160 184 193 200 204 207 203 205 212 216 217 218 214 215 220 216 215 218 220 219 215 206 210 200 209 202 203 193 202 195 191 185 200 206 241
338 4 12 27 49 65 76 105 151 184 191 209 213 212 210 212 231 226 223 220 218 217 223 218 217 221 225 228 225 215 216 215 213 212 206 209 217 198 200 204 211 221 232
317 332 356 11 35 61 83 91 102 137 173 201 219 225 222 228 235 231 222 217 214 219 223 223 222 225 227 230 232 221 227 221 225 224 228 221 223 214 207 208 222 233 247
297 313 332 359 4 30 90 111 103 105 119 146 201 219 231 228 241 231 233 216 213 214 220 222 226 226 229 232 235 233 229 228 228 228 235 234 232 229 222 219 227 243 256
279 293 313 329 356 353 15 108 127 117 108 117 182 232 216 210 216 221 227 227 225 221 228 233 227 228 232 237 242 244 234 234 235 236 236 234 230 234 233 235 236 244 256
265 270 292 307 330 344 339 356 88 141 147 130 100 82 212 215 211 221 223 241 230 229 232 236 237 234 234 234 237 243 248 243 237 236 245 243 234 233 235 238 239 244 253
244 250 268 288 308 330 352 298 60 113 145 142 109 96 93 215 219 224 236 233 231 224 234 229 239 245 245 247 245 244 243 244 244 242 238 245 249 239 239 241 243 252 257
227 238 255 268 285 305 337 357 151 132 126 121 83 72 37 328 234 233 237 241 231 228 230 237 241 244 245 247 249 248 251 252 249 247 244 240 241 248 247 249 249 255 260
229 233 240 260 262 284 301 325 106 146 151 147 141 153 143 220 282 284 256 251 242 229 230 233 237 243 245 247 248 253 254 252 253 251 252 251 250 249 251 256 259 259 261
231 236 239 249 251 259 277 296 318 40 140 169 192 179 185 251 280 279 275 253 242 241 246 248 243 242 247 249 251 251 255 257 253 254 251 251 254 257 258 254 256 260 263
241 235 251 241 253 250 263 273 276 283 291 124 183 208 206 207 267 255 246 257 256 242 238 243 250 256 258 256 253 255 256 259 257 250 251 251 252 252 253 256 255 256 258
251 244 255 246 246 247 251 258 258 263 271 270 294 318 243 217 230 254 268 272 266 253 253 247 248 256 266 268 258 255 254 253 259 251 249 251 248 248 251 255 257 257 257
230 234 251 252 237 242 236 247 254 256 262 271 275 285 307 327 258 243 253 263 276 272 271 262 258 263 267 272 257 251 256 253 256 259 253 252 253 254 259 251 250 247 253